Regional Weather Roundup
Issued by NWS Cleveland, OH

Home | Current Version | Previous Version | Text Only | Print | Product List | Glossary Off
Versions: 1 2 3 4 5 6 7 8 9 10 11 12 13 14 15 16 17 18 19 20 21 22 23 24 25 26 27 28 29 30 31 32 33 34 35 36 37 38 39 40 41 42 43 44 45 46 47 48 49 50

000
ASUS41 KCLE 221200
RWRCLE
OHIO REGIONAL WEATHER ROUNDUP
NATIONAL WEATHER SERVICE WILMINGTON, OH
700 AM EST MON JAN 22 2018

NOTE: "FAIR" INDICATES FEW OR NO CLOUDS BELOW 12,000 FEET WITH NO
SIGNIFICANT WEATHER AND/OR OBSTRUCTIONS TO VISIBILITY.

OHZ001>008-015>018-024>027-034-035-043-044-221300-
   NORTHWEST OHIO

CITY           SKY/WX    TMP DP  RH WIND       PRES   REMARKS
DEFIANCE       CLOUDY    49  46  90 S8        29.82F
FINDLAY        CLOUDY    47  43  86 SE9       29.85F
TOLEDO EXPRESS CLOUDY    45  45 100 SE5       29.84F FOG
TOLEDO EXEC    CLOUDY    46  44  93 SE7       29.86F FOG
LIMA           CLOUDY    48  44  86 S12       29.85F
$$

OHZ009>014-019>023-028>033-038-089-221300-
   NORTHEAST OHIO

CITY           SKY/WX    TMP DP  RH WIND       PRES   REMARKS
CLE-HOPKINS    LGT RAIN  50  47  89 S10       29.96F FOG
CLE-LAKEFRONT  CLOUDY    49  46  90 SE17      29.92F
CUY CO. ARPT   LGT RAIN  50  32  50 S13G22    29.95
LORAIN-ELYRIA  CLOUDY    47  42  83 S12       29.92F
ASHTABULA      CLOUDY    44  44 100 SE6       29.98S
AKRON-CANTON   CLOUDY    45  43  93 S7        29.97F
WOOSTER        NOT AVBL
MANSFIELD      MOCLDY    48  47  96 S13       29.92F
YOUNGSTOWN     CLOUDY    46  45  96 S8        29.99S FOG
$$

OHZ042-051>053-060>062-070>072-077>081-221300-
  SOUTHWEST OHIO

CITY           SKY/WX    TMP DP  RH WIND       PRES   REMARKS
CINC-COVINGTON CLOUDY    52  45  77 S13       29.88F
CINC-LUNKEN    FAIR      39  39 100 CALM      29.90F
HAMILTON       FAIR      51  44  77 SE3       29.89F
DAYTON         NOT AVBL
WRIGHT-PAT AFB MOCLDY    50  42  73 CALM      29.88F
DAYTON GENERAL FAIR      52  43  71 S12       29.88F
WILMINGTON     FAIR      51  44  77 S10       29.91F
$$

OHZ036-037-039>041-045>050-054>059-063>069-073>076-082>088-221300-
  CENTRAL AND SOUTHEAST OHIO

CITY           SKY/WX    TMP DP  RH WIND       PRES   REMARKS
COLUMBUS       CLOUDY    50  45  83 SE8       29.93F
OSU AIRPORT    FAIR      49  46  90 SE10      29.92F
BOLTON FIELD   NOT AVBL
RICKENBACK AFB NOT AVBL
NEWARK         FOG       45  43  93 S8        29.95S VSB 1/2
MARION         FAIR      48  44  86 S14       29.90F
LANCASTER      CLOUDY    48  45  89 SE8       29.95F
ZANESVILLE     CLOUDY    48  44  86 SE6       29.98F
NEW PHILLY     FOG       43  42  97 SE3       29.99F VSB 1
$$



USA.gov is the U.S. government's official web portal to all federal, state and local government web resources and services.